#timestamp,LO_Frequency,Hit,StdDev 
1618392815.2,286046957.8,P
1618392835.1,286046957.6,P
1618392836.0,286046957.6,P
1618392855.8,286046955.8,Y
1618392875.6,286046997.2,P
1618392895.5,286046997.9,N
1618392915.3,286046998.0,N
1618392935.2,286046998.0,N
1618392955.9,286046996.0,N
1618392975.7,286046996.3,N
1618392995.6,286046994.0,N
1618393015.4,286046994.7,N
1618393035.2,286046992.6,N
1618393055.1,286046993.0,N
1618393056.0,286046993.0,N
1618393075.8,286046993.1,N
1618393095.7,286046992.6,N
1618393115.5,286046992.6,N
1618393135.3,286046992.9,N
1618393155.2,286046991.0,N
1618393175.0,286046990.1,N
1618393175.9,286046990.1,N
1618393195.7,286046990.9,N
1618393215.6,286046991.2,N
1618393235.4,286046988.9,N
1618393255.3,286046989.4,N
1618393275.1,286046989.7,N
1618393276.0,286046989.7,N
1618393295.8,286046989.4,N
1618393315.7,286046987.2,N
1618393335.5,286046987.4,N
1618393355.3,286046988.0,N
1618393375.2,286046985.6,N
1618393395.0,286046986.7,N
1618393395.9,286046986.7,Y
1618393415.8,286046994.7,P
1618393435.6,286046994.7,P
1618393455.4,286046991.8,P
1618393475.3,286046991.9,Y
1618393495.1,286047001.0,P
1618393515.9,286046998.9,N
1618393535.7,286047000.6,N
1618393555.5,286047001.1,N
1618393575.4,286047000.7,N
1618393595.2,286046998.4,N
1618393615.0,286046998.3,N
1618393615.9,286046998.3,N
1618393635.8,286047000.3,N
1618393655.6,286046998.3,N
1618393675.5,286046999.0,N
1618393695.3,286046998.7,N
1618393715.1,286046999.2,N
1618393735.9,286046999.2,N
1618393755.7,286046998.7,N
1618393775.5,286046997.0,N
1618393795.4,286046997.5,N
1618393815.2,286046997.4,N
1618393835.0,286046994.9,N
1618393836.0,286046994.9,N
1618393855.8,286046995.7,N
1618393875.6,286046997.6,N
1618393895.5,286046996.2,N
1618393915.3,286046995.7,N
1618393935.1,286046994.0,N
1618393955.9,286046994.6,N
1618393975.7,286046996.0,N
1618393995.5,286046993.7,N
1618394015.4,286046995.9,N
1618394035.2,286046996.3,N
1618394055.1,286046996.3,N
1618394056.0,286046996.3,N
1618394075.8,286046994.2,N
1618394095.6,286046991.7,Y
1618394115.5,286046995.6,P
1618394135.3,286046993.6,P
1618394155.1,286046996.1,N
1618394175.9,286046995.1,Y
1618394195.7,286047000.5,P
1618394215.6,286047000.8,N
1618394235.4,286047000.4,N
1618394255.2,286047001.1,N
1618394275.1,286046998.4,N
1618394276.0,286046998.4,N
1618394295.8,286046999.9,N
1618394315.7,286047000.4,N
1618394335.5,286047001.8,N
1618394355.3,286047002.3,N
1618394375.2,286047001.2,N
1618394395.9,286046998.3,N
